Location: Newark
(48.1500°N, 13.1167°E)
Time: 22:46:01
(UTC+00:00)

METEOR M2 - Visible Passes

Search period start: 01 December 2021 00:00
Search period end: 11 December 2021 00:00
Orbit: 819 x 827 km, 98.4° (Epoch: 01 December)

Date Brightness Start Highest point End Pass type
(mag) Time Alt. Az. Time Alt. Az. Time Alt. Az.
01 Dec ? 05:35:12 10° NE 05:39:30 24° E 05:43:46 10° SE visible
01 Dec ? 17:00:54 10° SE 17:06:07 53° ENE 17:11:21 10° N visible
01 Dec ? 18:42:12 10° SSW 18:46:35 25° W 18:50:59 10° NW visible
02 Dec ? 05:15:58 10° NE 05:19:19 17° E 05:22:39 10° SE visible
02 Dec ? 16:41:23 10° SE 16:46:18 38° ENE 16:51:14 10° N visible
02 Dec ? 18:21:34 10° SSW 18:26:29 36° W 18:31:26 10° NNW visible
03 Dec ? 04:57:42 10° ENE 04:59:05 11° E 05:00:28 10° E visible
03 Dec ? 16:22:06 10° ESE 16:26:34 27° ENE 16:31:01 10° N visible
03 Dec ? 18:01:13 10° S 18:06:27 52° W 18:11:43 10° NNW visible
04 Dec ? 16:03:04 10° ESE 16:06:52 20° ENE 16:10:39 10° NNE visible
04 Dec ? 17:41:05 10° S 17:46:27 75° WSW 17:51:52 10° NNW visible
04 Dec ? 19:25:58 10° WSW 19:27:34 11° W 19:29:10 10° WNW visible
05 Dec ? 05:55:16 10° NNE 06:00:10 35° E 06:05:02 10° SSE visible
05 Dec ? 17:21:10 10° SSE 17:26:32 77° ENE 17:31:56 10° NNW visible
05 Dec ? 19:03:54 10° SW 19:07:20 17° W 19:10:46 10° NW visible
06 Dec ? 05:35:44 10° NE 05:40:04 24° E 05:44:23 10° SE visible
06 Dec ? 17:01:27 10° SE 17:06:40 54° ENE 17:11:55 10° N visible
06 Dec ? 18:42:50 10° SW 18:47:10 24° W 18:51:31 10° NW visible
07 Dec ? 05:16:29 10° NE 05:19:55 17° E 05:23:18 10° SE visible
07 Dec ? 16:41:56 10° SE 16:46:52 38° ENE 16:51:48 10° N visible
07 Dec ? 18:22:10 10° SSW 18:27:04 35° W 18:31:58 10° NNW visible
08 Dec ? 04:58:05 10° ENE 04:59:41 11° E 05:01:15 10° ESE visible
08 Dec ? 16:22:37 10° ESE 16:27:07 28° ENE 16:31:36 10° N visible
08 Dec ? 18:01:48 10° S 18:07:01 51° W 18:12:15 10° NNW visible
09 Dec ? 16:03:35 10° ESE 16:07:25 20° ENE 16:11:15 10° NNE visible
09 Dec ? 17:41:40 10° S 17:47:02 73° WSW 17:52:26 10° NNW visible
09 Dec ? 19:26:46 10° W 19:28:09 11° W 19:29:32 10° WNW visible
10 Dec ? 05:55:49 10° NNE 06:00:45 36° E 06:05:38 10° SSE visible
10 Dec ? 15:44:54 10° E 15:47:46 15° NE 15:50:39 10° NNE visible
10 Dec ? 17:21:44 10° SSE 17:27:06 79° ENE 17:32:30 10° NNW visible
10 Dec ? 19:04:34 10° SW 19:07:55 17° W 19:11:16 10° NW visible
